Location: Bas-Clignon
(44.2000°N, 6.6333°E)
Time: 06:33:25
(UTC+00:00)

CZ-4B DEB - Pass Details

Date: 03 February 2023
Orbit: 839 x 859 km, 99.1° (Epoch: 26 March)

Event Time Altitude Azimuth Distance (km) Brightness Sun altitude
Rises 17:45:12 0° 159° (SSE) 3,379 7.2 -11.0°
Reaches altitude 10° 17:47:33 10° 157° (SSE) 2,449 6.5 -11.4°
Maximum altitude 17:52:58 76° 73° (ENE) 870 4.1 -12.4°
Drops below altitude 10° 17:58:26 10° 349° (NNW) 2,473 6.7 -13.3°
Sets 18:00:49 0° 348° (NNW) 3,415 7.4 -13.8°
